Year,Month,Day,Hour,Minute,Value (Times are PST for temperature in C)
2009,07,18,00,00,19.10
2009,07,18,00,01,19.10
2009,07,18,00,02,19.00
2009,07,18,00,03,18.90
2009,07,18,00,04,18.90
2009,07,18,00,05,18.90
2009,07,18,00,06,18.80
2009,07,18,00,07,18.80
2009,07,18,00,08,18.70
2009,07,18,00,09,18.70
2009,07,18,00,10,18.60
2009,07,18,00,11,18.50
2009,07,18,00,12,18.40
2009,07,18,00,13,18.30
2009,07,18,00,14,18.20
2009,07,18,00,15,18.20
2009,07,18,00,16,18.20
2009,07,18,00,17,18.10
2009,07,18,00,18,18.00
2009,07,18,00,19,17.90
2009,07,18,00,20,17.90
2009,07,18,00,21,17.80
2009,07,18,00,22,17.70
2009,07,18,00,23,17.70
2009,07,18,00,24,17.70
2009,07,18,00,25,17.60
2009,07,18,00,26,17.60
2009,07,18,00,27,17.50
2009,07,18,00,28,17.50
2009,07,18,00,29,17.50
2009,07,18,00,30,17.40
2009,07,18,00,31,17.40
2009,07,18,00,32,17.50
2009,07,18,00,33,17.50
2009,07,18,00,34,17.60
2009,07,18,00,35,17.60
2009,07,18,00,36,17.70
2009,07,18,00,37,17.70
2009,07,18,00,38,17.70
2009,07,18,00,39,17.70
2009,07,18,00,40,17.80
2009,07,18,00,41,17.80
2009,07,18,00,42,17.90
2009,07,18,00,43,17.90
2009,07,18,00,44,17.90
2009,07,18,00,45,17.90
2009,07,18,00,46,18.00
2009,07,18,00,47,18.10
2009,07,18,00,48,18.10
2009,07,18,00,49,18.10
2009,07,18,00,50,18.10
2009,07,18,00,51,18.10
2009,07,18,00,52,18.10
2009,07,18,00,53,18.10
2009,07,18,00,54,18.10
2009,07,18,00,55,18.10
2009,07,18,00,56,18.10
2009,07,18,00,57,18.10
2009,07,18,00,58,18.20
2009,07,18,00,59,18.20
2009,07,18,01,00,18.20
2009,07,18,01,01,18.20
2009,07,18,01,02,18.20
2009,07,18,01,03,18.30
2009,07,18,01,04,18.30
2009,07,18,01,05,18.30
2009,07,18,01,06,18.30
2009,07,18,01,07,18.20
2009,07,18,01,08,18.20
2009,07,18,01,09,18.20
2009,07,18,01,10,18.20
2009,07,18,01,11,18.10
2009,07,18,01,12,18.10
2009,07,18,01,13,18.10
2009,07,18,01,14,18.10
2009,07,18,01,15,18.10
2009,07,18,01,16,18.20
2009,07,18,01,17,18.20
2009,07,18,01,18,18.20
2009,07,18,01,19,18.20
2009,07,18,01,20,18.20
2009,07,18,01,21,18.20
2009,07,18,01,22,18.10
2009,07,18,01,23,18.10
2009,07,18,01,24,18.10
2009,07,18,01,25,18.10
2009,07,18,01,26,18.10
2009,07,18,01,27,18.10
2009,07,18,01,28,17.90
2009,07,18,01,29,17.80
2009,07,18,01,30,17.70
2009,07,18,01,31,17.60
2009,07,18,01,32,17.60
2009,07,18,01,33,17.50
2009,07,18,01,34,17.50
2009,07,18,01,35,17.50
2009,07,18,01,36,17.50
2009,07,18,01,37,17.40
2009,07,18,01,38,17.40
2009,07,18,01,39,17.40
2009,07,18,01,40,17.40
2009,07,18,01,41,17.50
2009,07,18,01,42,17.60
2009,07,18,01,43,17.60
2009,07,18,01,44,17.70
2009,07,18,01,45,17.80
2009,07,18,01,46,17.80
2009,07,18,01,47,17.90
2009,07,18,01,48,17.90
2009,07,18,01,49,17.90
2009,07,18,01,50,17.90
2009,07,18,01,51,17.80
2009,07,18,01,52,17.80
2009,07,18,01,53,17.80
2009,07,18,01,54,17.80
2009,07,18,01,55,17.80
2009,07,18,01,56,17.80
2009,07,18,01,57,17.80
2009,07,18,01,58,17.80
2009,07,18,01,59,17.80
2009,07,18,02,00,17.80
2009,07,18,02,01,17.80
2009,07,18,02,02,17.80
2009,07,18,02,03,17.80
2009,07,18,02,04,17.70
2009,07,18,02,05,17.70
2009,07,18,02,06,17.70
2009,07,18,02,07,17.70
2009,07,18,02,08,17.70
2009,07,18,02,09,17.70
2009,07,18,02,10,17.80
2009,07,18,02,11,17.80
2009,07,18,02,12,17.90
2009,07,18,02,13,17.90
2009,07,18,02,14,18.10
2009,07,18,02,15,18.10
2009,07,18,02,16,18.20
2009,07,18,02,17,18.20
2009,07,18,02,18,18.20
2009,07,18,02,19,18.20
2009,07,18,02,20,18.30
2009,07,18,02,21,18.30
2009,07,18,02,22,18.20
2009,07,18,02,23,18.20
2009,07,18,02,24,18.10
2009,07,18,02,25,17.90
2009,07,18,02,26,17.90
2009,07,18,02,27,17.90
2009,07,18,02,28,17.90
2009,07,18,02,29,18.00
2009,07,18,02,30,18.10
2009,07,18,02,31,18.10
2009,07,18,02,32,18.10
2009,07,18,02,33,18.10
2009,07,18,02,34,18.00
2009,07,18,02,35,17.90
2009,07,18,02,36,17.80
2009,07,18,02,37,17.70
2009,07,18,02,38,17.50
2009,07,18,02,39,17.50
2009,07,18,02,40,17.50
2009,07,18,02,41,17.60
2009,07,18,02,42,17.60
2009,07,18,02,43,17.60
2009,07,18,02,44,17.70
2009,07,18,02,45,17.70
2009,07,18,02,46,17.70
2009,07,18,02,47,17.70
2009,07,18,02,48,17.60
2009,07,18,02,49,17.50
2009,07,18,02,50,17.40
2009,07,18,02,51,17.30
2009,07,18,02,52,17.20
2009,07,18,02,53,17.00
2009,07,18,02,54,16.90
2009,07,18,02,55,16.80
2009,07,18,02,56,16.70
2009,07,18,02,57,16.70
2009,07,18,02,58,16.60
2009,07,18,02,59,16.50
2009,07,18,03,00,16.40
2009,07,18,03,01,16.30
2009,07,18,03,02,16.30
2009,07,18,03,03,16.30
2009,07,18,03,04,16.40
2009,07,18,03,05,16.40
2009,07,18,03,06,16.40
2009,07,18,03,07,16.50
2009,07,18,03,08,16.60
2009,07,18,03,09,16.70
2009,07,18,03,10,16.70
2009,07,18,03,11,16.80
2009,07,18,03,12,16.90
2009,07,18,03,13,17.00
2009,07,18,03,14,17.00
2009,07,18,03,15,17.10
2009,07,18,03,16,17.10
2009,07,18,03,17,17.10
2009,07,18,03,18,17.20
2009,07,18,03,19,17.20
2009,07,18,03,20,17.10
2009,07,18,03,21,17.10
2009,07,18,03,22,17.10
2009,07,18,03,23,17.00
2009,07,18,03,24,17.00
2009,07,18,03,25,17.00
2009,07,18,03,26,17.00
2009,07,18,03,27,17.00
2009,07,18,03,28,16.90
2009,07,18,03,29,16.90
2009,07,18,03,30,16.90
2009,07,18,03,31,16.90
2009,07,18,03,32,16.90
2009,07,18,03,33,16.90
2009,07,18,03,34,16.90
2009,07,18,03,35,16.90
2009,07,18,03,36,17.00
2009,07,18,03,37,17.00
2009,07,18,03,38,17.00
2009,07,18,03,39,17.00
2009,07,18,03,40,16.90
2009,07,18,03,41,16.90
2009,07,18,03,42,16.90
2009,07,18,03,43,16.90
2009,07,18,03,44,16.90
2009,07,18,03,45,16.80
2009,07,18,03,46,16.80
2009,07,18,03,47,16.80
2009,07,18,03,48,16.80
2009,07,18,03,49,16.80
2009,07,18,03,50,16.80
2009,07,18,03,51,16.70
2009,07,18,03,52,16.70
2009,07,18,03,53,16.70
2009,07,18,03,54,16.70
2009,07,18,03,55,16.70
2009,07,18,03,56,16.70
2009,07,18,03,57,16.70
2009,07,18,03,58,16.70
2009,07,18,03,59,16.70
2009,07,18,04,00,16.70
2009,07,18,04,01,16.70
2009,07,18,04,02,16.60
2009,07,18,04,03,16.50
2009,07,18,04,04,16.40
2009,07,18,04,05,16.40
2009,07,18,04,06,16.50
2009,07,18,04,07,16.70
2009,07,18,04,08,16.80
2009,07,18,04,09,16.90
2009,07,18,04,10,17.00
2009,07,18,04,11,17.10
2009,07,18,04,12,17.20
2009,07,18,04,13,17.20
2009,07,18,04,14,17.30
2009,07,18,04,15,17.30
2009,07,18,04,16,17.30
2009,07,18,04,17,17.30
2009,07,18,04,18,17.30
2009,07,18,04,19,17.30
2009,07,18,04,20,17.30
2009,07,18,04,21,17.30
2009,07,18,04,22,17.40
2009,07,18,04,23,17.40
2009,07,18,04,24,17.40
2009,07,18,04,25,17.50
2009,07,18,04,26,17.50
2009,07,18,04,27,17.60
2009,07,18,04,28,17.60
2009,07,18,04,29,17.60
2009,07,18,04,30,17.70
2009,07,18,04,31,17.70
2009,07,18,04,32,17.70
2009,07,18,04,33,17.70
2009,07,18,04,34,17.70
2009,07,18,04,35,17.80
2009,07,18,04,36,17.80
2009,07,18,04,37,17.80
2009,07,18,04,38,17.70
2009,07,18,04,39,17.70
2009,07,18,04,40,17.60
2009,07,18,04,41,17.50
2009,07,18,04,42,17.50
2009,07,18,04,43,17.50
2009,07,18,04,44,17.50
2009,07,18,04,45,17.50
2009,07,18,04,46,17.60
2009,07,18,04,47,17.60
2009,07,18,04,48,17.60
2009,07,18,04,49,17.60
2009,07,18,04,50,17.60
2009,07,18,04,51,17.60
2009,07,18,04,52,17.60
2009,07,18,04,53,17.50
2009,07,18,04,54,17.50
2009,07,18,04,55,17.40
2009,07,18,04,56,17.40
2009,07,18,04,57,17.40
2009,07,18,04,58,17.40
2009,07,18,04,59,17.30
2009,07,18,05,00,17.40
2009,07,18,05,01,17.40
2009,07,18,05,02,17.50
2009,07,18,05,03,17.50
2009,07,18,05,04,17.50
2009,07,18,05,05,17.60
2009,07,18,05,06,17.60
2009,07,18,05,07,17.60
2009,07,18,05,08,17.60
2009,07,18,05,09,17.50
2009,07,18,05,10,17.50
2009,07,18,05,11,17.50
2009,07,18,05,12,17.40
2009,07,18,05,13,17.30
2009,07,18,05,14,17.30
2009,07,18,05,15,17.30
2009,07,18,05,16,17.20
2009,07,18,05,17,17.20
2009,07,18,05,18,17.10
2009,07,18,05,19,17.00
2009,07,18,05,20,17.00
2009,07,18,05,21,16.90
2009,07,18,05,22,16.90
2009,07,18,05,23,16.80
2009,07,18,05,24,16.70
2009,07,18,05,25,16.70
2009,07,18,05,26,16.60
2009,07,18,05,27,16.60
2009,07,18,05,28,16.50
2009,07,18,05,29,16.40
2009,07,18,05,30,16.40
2009,07,18,05,31,16.30
2009,07,18,05,32,16.20
2009,07,18,05,33,16.20
2009,07,18,05,34,16.10
2009,07,18,05,35,16.00
2009,07,18,05,36,15.90
2009,07,18,05,37,15.80
2009,07,18,05,38,15.80
2009,07,18,05,39,15.80
2009,07,18,05,40,15.80
2009,07,18,05,41,15.80
2009,07,18,05,42,15.80
2009,07,18,05,43,15.80
2009,07,18,05,44,15.70
2009,07,18,05,45,15.70
2009,07,18,05,46,15.70
2009,07,18,05,47,15.60
2009,07,18,05,48,15.60
2009,07,18,05,49,15.60
2009,07,18,05,50,15.50
2009,07,18,05,51,15.50
2009,07,18,05,52,15.40
2009,07,18,05,53,15.40
2009,07,18,05,54,15.40
2009,07,18,05,55,15.30
2009,07,18,05,56,15.30
2009,07,18,05,57,15.40
2009,07,18,05,58,15.40
2009,07,18,05,59,15.40
2009,07,18,06,00,15.40
2009,07,18,06,01,15.40
2009,07,18,06,02,15.40
2009,07,18,06,03,15.40
2009,07,18,06,04,15.40
2009,07,18,06,05,15.40
2009,07,18,06,06,15.40
2009,07,18,06,07,15.40
2009,07,18,06,08,15.40
2009,07,18,06,09,15.30
2009,07,18,06,10,15.30
2009,07,18,06,11,15.30
2009,07,18,06,12,15.30
2009,07,18,06,13,15.30
2009,07,18,06,14,15.30
2009,07,18,06,15,15.30
2009,07,18,06,16,15.30
2009,07,18,06,17,15.30
2009,07,18,06,18,15.40
2009,07,18,06,19,15.40
2009,07,18,06,20,15.50
2009,07,18,06,21,15.50
2009,07,18,06,22,15.50
2009,07,18,06,23,15.50
2009,07,18,06,24,15.60
2009,07,18,06,25,15.60
2009,07,18,06,26,15.60
2009,07,18,06,27,15.70
2009,07,18,06,28,15.70
2009,07,18,06,29,15.70
2009,07,18,06,30,15.70
2009,07,18,06,31,15.80
2009,07,18,06,32,15.80
2009,07,18,06,33,15.80
2009,07,18,06,34,15.90
2009,07,18,06,35,15.90
2009,07,18,06,36,16.00
2009,07,18,06,37,16.10
2009,07,18,06,38,16.10
2009,07,18,06,39,16.20
2009,07,18,06,40,16.30
2009,07,18,06,41,16.30
2009,07,18,06,42,16.40
2009,07,18,06,43,16.40
2009,07,18,06,44,16.60
2009,07,18,06,45,16.60
2009,07,18,06,46,16.70
2009,07,18,06,47,16.70
2009,07,18,06,48,16.80
2009,07,18,06,49,16.90
2009,07,18,06,50,17.00
2009,07,18,06,51,17.10
2009,07,18,06,52,17.20
2009,07,18,06,53,17.20
2009,07,18,06,54,17.30
2009,07,18,06,55,17.30
2009,07,18,06,56,17.30
2009,07,18,06,57,17.40
2009,07,18,06,58,17.40
2009,07,18,06,59,17.40
2009,07,18,07,00,17.50
2009,07,18,07,01,17.50
2009,07,18,07,02,17.60
2009,07,18,07,03,17.60
2009,07,18,07,04,17.60
2009,07,18,07,05,17.60
2009,07,18,07,06,17.60
2009,07,18,07,07,17.60
2009,07,18,07,08,17.70
2009,07,18,07,09,17.70
2009,07,18,07,10,17.70
2009,07,18,07,11,17.70
2009,07,18,07,12,17.80
2009,07,18,07,13,17.90
2009,07,18,07,14,17.90
2009,07,18,07,15,18.00
2009,07,18,07,16,18.10
2009,07,18,07,17,18.20
2009,07,18,07,18,18.20
2009,07,18,07,19,18.20
2009,07,18,07,20,18.30
2009,07,18,07,21,18.30
2009,07,18,07,22,18.40
2009,07,18,07,23,18.40
2009,07,18,07,24,18.50
2009,07,18,07,25,18.50
2009,07,18,07,26,18.60
2009,07,18,07,27,18.70
2009,07,18,07,28,18.80
2009,07,18,07,29,18.80
2009,07,18,07,30,18.90
2009,07,18,07,31,19.00
2009,07,18,07,32,19.20
2009,07,18,07,33,19.40
2009,07,18,07,34,19.60
2009,07,18,07,35,19.80
2009,07,18,07,36,19.90
2009,07,18,07,37,20.10
2009,07,18,07,38,20.20
2009,07,18,07,39,20.20
2009,07,18,07,40,20.20
2009,07,18,07,41,20.20
2009,07,18,07,42,20.20
2009,07,18,07,43,20.20
2009,07,18,07,44,20.20
2009,07,18,07,45,20.20
2009,07,18,07,46,20.20
2009,07,18,07,47,20.20
2009,07,18,07,48,20.20
2009,07,18,07,49,20.20
2009,07,18,07,50,20.30
2009,07,18,07,51,20.30
2009,07,18,07,52,20.40
2009,07,18,07,53,20.40
2009,07,18,07,54,20.40
2009,07,18,07,55,20.40
2009,07,18,07,56,20.40
2009,07,18,07,57,20.50
2009,07,18,07,58,20.50
2009,07,18,07,59,20.60
2009,07,18,08,00,20.60
2009,07,18,08,01,20.70
2009,07,18,08,02,20.80
2009,07,18,08,03,20.80
2009,07,18,08,04,20.80
2009,07,18,08,05,20.90
2009,07,18,08,06,21.00
2009,07,18,08,07,21.00
2009,07,18,08,08,21.00
2009,07,18,08,09,21.00
2009,07,18,08,10,20.90
2009,07,18,08,11,20.90
2009,07,18,08,12,20.90
2009,07,18,08,13,20.80
2009,07,18,08,14,20.80
2009,07,18,08,15,20.80
2009,07,18,08,16,20.80
2009,07,18,08,17,20.70
2009,07,18,08,18,20.70
2009,07,18,08,19,20.70
2009,07,18,08,20,20.70
2009,07,18,08,21,20.70
2009,07,18,08,22,20.80
2009,07,18,08,23,20.80
2009,07,18,08,24,20.80
2009,07,18,08,25,20.80
2009,07,18,08,26,20.80
2009,07,18,08,27,20.80
2009,07,18,08,28,20.80
2009,07,18,08,29,20.80
2009,07,18,08,30,20.80
2009,07,18,08,31,20.80
2009,07,18,08,32,20.80
2009,07,18,08,33,20.90
2009,07,18,08,34,20.90
2009,07,18,08,35,21.00
2009,07,18,08,36,21.00
2009,07,18,08,37,20.90
2009,07,18,08,38,20.80
2009,07,18,08,39,20.80
2009,07,18,08,40,20.80
2009,07,18,08,41,20.80
2009,07,18,08,42,20.80
2009,07,18,08,43,20.80
2009,07,18,08,44,20.80
2009,07,18,08,45,20.80
2009,07,18,08,46,20.70
2009,07,18,08,47,20.70
2009,07,18,08,48,20.70
2009,07,18,08,49,20.70
2009,07,18,08,50,20.80
2009,07,18,08,51,20.80
2009,07,18,08,52,20.90
2009,07,18,08,53,20.90
2009,07,18,08,54,21.10
2009,07,18,08,55,21.20
2009,07,18,08,56,21.30
2009,07,18,08,57,21.50
2009,07,18,08,58,21.60
2009,07,18,08,59,21.70
2009,07,18,09,00,21.80
2009,07,18,09,01,21.90
2009,07,18,09,02,22.00
2009,07,18,09,03,22.00
2009,07,18,09,04,22.00
2009,07,18,09,05,22.10
2009,07,18,09,06,22.20
2009,07,18,09,07,22.20
2009,07,18,09,08,22.10
2009,07,18,09,09,22.10
2009,07,18,09,10,22.10
2009,07,18,09,11,22.00
2009,07,18,09,12,22.00
2009,07,18,09,13,21.90
2009,07,18,09,14,21.90
2009,07,18,09,15,21.80
2009,07,18,09,16,21.80
2009,07,18,09,17,21.70
2009,07,18,09,18,21.60
2009,07,18,09,19,21.70
2009,07,18,09,20,21.70
2009,07,18,09,21,21.80
2009,07,18,09,22,21.90
2009,07,18,09,23,21.90
2009,07,18,09,24,21.90
2009,07,18,09,25,21.90
2009,07,18,09,26,21.90
2009,07,18,09,27,21.80
2009,07,18,09,28,21.80
2009,07,18,09,29,21.80
2009,07,18,09,30,21.70
2009,07,18,09,31,21.70
2009,07,18,09,32,21.70
2009,07,18,09,33,21.60
2009,07,18,09,34,21.60
2009,07,18,09,35,21.60
2009,07,18,09,36,21.60
2009,07,18,09,37,21.70
2009,07,18,09,38,21.80
2009,07,18,09,39,21.90
2009,07,18,09,40,22.00
2009,07,18,09,41,22.00
2009,07,18,09,42,22.00
2009,07,18,09,43,21.90
2009,07,18,09,44,22.00
2009,07,18,09,45,22.00
2009,07,18,09,46,22.00
2009,07,18,09,47,21.90
2009,07,18,09,48,21.90
2009,07,18,09,49,22.00
2009,07,18,09,50,22.00
2009,07,18,09,51,22.00
2009,07,18,09,52,22.00
2009,07,18,09,53,22.00
2009,07,18,09,54,22.00
2009,07,18,09,55,22.00
2009,07,18,09,56,22.00
2009,07,18,09,57,22.00
2009,07,18,09,58,21.90
2009,07,18,09,59,21.80
2009,07,18,10,00,21.80
2009,07,18,10,01,21.70
2009,07,18,10,02,21.70
2009,07,18,10,03,21.60
2009,07,18,10,04,21.60
2009,07,18,10,05,21.50
2009,07,18,10,06,21.50
2009,07,18,10,07,21.60
2009,07,18,10,08,21.60
2009,07,18,10,09,21.60
2009,07,18,10,10,21.60
2009,07,18,10,11,21.50
2009,07,18,10,12,21.40
2009,07,18,10,13,21.30
2009,07,18,10,14,21.30
2009,07,18,10,15,21.40
2009,07,18,10,16,21.40
2009,07,18,10,17,21.40
2009,07,18,10,18,21.50
2009,07,18,10,19,21.60
2009,07,18,10,20,21.70
2009,07,18,10,21,21.80
2009,07,18,10,22,21.90
2009,07,18,10,23,21.90
2009,07,18,10,24,21.80
2009,07,18,10,25,21.80
2009,07,18,10,26,21.70
2009,07,18,10,27,21.70
2009,07,18,10,28,21.60
2009,07,18,10,29,21.60
2009,07,18,10,30,21.70
2009,07,18,10,31,21.70
2009,07,18,10,32,21.70
2009,07,18,10,33,21.60
2009,07,18,10,34,21.50
2009,07,18,10,35,21.30
2009,07,18,10,36,21.20
2009,07,18,10,37,21.10
2009,07,18,10,38,21.00
2009,07,18,10,39,21.00
2009,07,18,10,40,21.00
2009,07,18,10,41,20.90
2009,07,18,10,42,20.90
2009,07,18,10,43,20.80
2009,07,18,10,44,20.80
2009,07,18,10,45,20.80
2009,07,18,10,46,20.80
2009,07,18,10,47,20.80
2009,07,18,10,48,20.80
2009,07,18,10,49,20.90
2009,07,18,10,50,21.00
2009,07,18,10,51,21.20
2009,07,18,10,52,21.30
2009,07,18,10,53,21.30
2009,07,18,10,54,21.40
2009,07,18,10,55,21.50
2009,07,18,10,56,21.60
2009,07,18,10,57,21.60
2009,07,18,10,58,21.60
2009,07,18,10,59,21.60
2009,07,18,11,00,21.50
2009,07,18,11,01,21.40
2009,07,18,11,02,21.30
2009,07,18,11,03,21.20
2009,07,18,11,04,21.10
2009,07,18,11,05,21.10
2009,07,18,11,06,21.00
2009,07,18,11,07,21.00
2009,07,18,11,08,20.90
2009,07,18,11,09,20.80
2009,07,18,11,10,20.70
2009,07,18,11,11,20.60
2009,07,18,11,12,20.60
2009,07,18,11,13,20.60
2009,07,18,11,14,20.70
2009,07,18,11,15,20.70
2009,07,18,11,16,20.70
2009,07,18,11,17,20.70
2009,07,18,11,18,20.70
2009,07,18,11,19,20.70
2009,07,18,11,20,20.70
2009,07,18,11,21,20.60
2009,07,18,11,22,20.60
2009,07,18,11,23,20.50
2009,07,18,11,24,20.40
2009,07,18,11,25,20.40
2009,07,18,11,26,20.50
2009,07,18,11,27,20.60
2009,07,18,11,28,20.70
2009,07,18,11,29,20.70
2009,07,18,11,30,20.70
2009,07,18,11,31,20.70
2009,07,18,11,32,20.70
2009,07,18,11,33,20.80
2009,07,18,11,34,20.80
2009,07,18,11,35,20.90
2009,07,18,11,36,21.00
2009,07,18,11,37,21.00
2009,07,18,11,38,21.10
2009,07,18,11,39,21.20
2009,07,18,11,40,21.30
2009,07,18,11,41,21.30
2009,07,18,11,42,21.30
2009,07,18,11,43,21.40
2009,07,18,11,44,21.40
2009,07,18,11,45,21.30
2009,07,18,11,46,21.30
2009,07,18,11,47,21.30
2009,07,18,11,48,21.40
2009,07,18,11,49,21.50
2009,07,18,11,50,21.60
2009,07,18,11,51,21.60
2009,07,18,11,52,21.70
2009,07,18,11,53,21.80
2009,07,18,11,54,21.80
2009,07,18,11,55,21.80
2009,07,18,11,56,21.60
2009,07,18,11,57,21.50
2009,07,18,11,58,21.30
2009,07,18,11,59,21.20
2009,07,18,12,00,21.10
2009,07,18,12,01,21.10
2009,07,18,12,02,21.10
2009,07,18,12,03,21.30
2009,07,18,12,04,21.30
2009,07,18,12,05,21.30
2009,07,18,12,06,21.20
2009,07,18,12,07,21.20
2009,07,18,12,08,21.30
2009,07,18,12,09,21.50
2009,07,18,12,10,21.60
2009,07,18,12,11,21.60
2009,07,18,12,12,21.60
2009,07,18,12,13,21.60
2009,07,18,12,14,21.60
2009,07,18,12,15,21.60
2009,07,18,12,16,21.60
2009,07,18,12,17,21.60
2009,07,18,12,18,21.60
2009,07,18,12,19,21.60
2009,07,18,12,20,21.60
2009,07,18,12,21,21.70
2009,07,18,12,22,21.80
2009,07,18,12,23,21.80
2009,07,18,12,24,21.80
2009,07,18,12,25,21.80
2009,07,18,12,26,21.90
2009,07,18,12,27,21.90
2009,07,18,12,28,22.00
2009,07,18,12,29,22.00
2009,07,18,12,30,22.10
2009,07,18,12,31,22.10
2009,07,18,12,32,22.10
2009,07,18,12,33,22.20
2009,07,18,12,34,22.30
2009,07,18,12,35,22.40
2009,07,18,12,36,22.50
2009,07,18,12,37,22.50
2009,07,18,12,38,22.60
2009,07,18,12,39,22.70
2009,07,18,12,40,22.90
2009,07,18,12,41,22.90
2009,07,18,12,42,23.10
2009,07,18,12,43,23.20
2009,07,18,12,44,23.30
2009,07,18,12,45,23.40
2009,07,18,12,46,23.60
2009,07,18,12,47,23.70
2009,07,18,12,48,23.60
2009,07,18,12,49,23.60
2009,07,18,12,50,23.70
2009,07,18,12,51,23.70
2009,07,18,12,52,23.70
2009,07,18,12,53,23.90
2009,07,18,12,54,23.90
2009,07,18,12,55,24.00
2009,07,18,12,56,24.10
2009,07,18,12,57,24.00
2009,07,18,12,58,23.80
2009,07,18,12,59,23.70
2009,07,18,13,00,23.70
2009,07,18,13,01,23.90
2009,07,18,13,02,24.10
2009,07,18,13,03,24.30
2009,07,18,13,04,24.40
2009,07,18,13,05,24.50
2009,07,18,13,06,24.70
2009,07,18,13,07,24.80
2009,07,18,13,08,24.90
2009,07,18,13,09,24.80
2009,07,18,13,10,24.50
2009,07,18,13,11,24.40
2009,07,18,13,12,24.50
2009,07,18,13,13,24.40
2009,07,18,13,14,24.20
2009,07,18,13,15,24.10
2009,07,18,13,16,23.90
2009,07,18,13,17,23.80
2009,07,18,13,18,23.70
2009,07,18,13,19,23.70
2009,07,18,13,20,23.80
2009,07,18,13,21,23.90
2009,07,18,13,22,24.00
2009,07,18,13,23,24.30
2009,07,18,13,24,24.50
2009,07,18,13,25,24.80
2009,07,18,13,26,25.10
2009,07,18,13,27,25.30
2009,07,18,13,28,25.30
2009,07,18,13,29,25.30
2009,07,18,13,30,25.30
2009,07,18,13,31,25.30
2009,07,18,13,32,25.30
2009,07,18,13,33,25.30
2009,07,18,13,34,25.10
2009,07,18,13,35,25.10
2009,07,18,13,36,25.00
2009,07,18,13,37,25.00
2009,07,18,13,38,25.10
2009,07,18,13,39,25.10
2009,07,18,13,40,25.20
2009,07,18,13,41,25.20
2009,07,18,13,42,25.20
2009,07,18,13,43,25.20
2009,07,18,13,44,25.20
2009,07,18,13,45,25.20
2009,07,18,13,46,25.30
2009,07,18,13,47,25.30
2009,07,18,13,48,25.30
2009,07,18,13,49,25.30
2009,07,18,13,50,25.20
2009,07,18,13,51,25.00
2009,07,18,13,52,24.90
2009,07,18,13,53,24.70
2009,07,18,13,54,24.50
2009,07,18,13,55,24.40
2009,07,18,13,56,24.40
2009,07,18,13,57,24.50
2009,07,18,13,58,24.70
2009,07,18,13,59,24.80
2009,07,18,14,00,24.90
2009,07,18,14,01,25.10
2009,07,18,14,02,25.20
2009,07,18,14,03,25.30
2009,07,18,14,04,25.40
2009,07,18,14,05,25.40
2009,07,18,14,06,25.40
2009,07,18,14,07,25.50
2009,07,18,14,08,25.60
2009,07,18,14,09,25.70
2009,07,18,14,10,25.80
2009,07,18,14,11,25.80
2009,07,18,14,12,26.00
2009,07,18,14,13,26.20
2009,07,18,14,14,26.20
2009,07,18,14,15,26.20
2009,07,18,14,16,26.20
2009,07,18,14,17,26.20
2009,07,18,14,18,26.20
2009,07,18,14,19,26.30
2009,07,18,14,20,26.40
2009,07,18,14,21,26.20
2009,07,18,14,22,26.00
2009,07,18,14,23,26.00
2009,07,18,14,24,25.90
2009,07,18,14,25,25.90
2009,07,18,14,26,25.80
2009,07,18,14,27,25.50
2009,07,18,14,28,25.30
2009,07,18,14,29,25.10
2009,07,18,14,30,25.10
2009,07,18,14,31,25.10
2009,07,18,14,32,25.10
2009,07,18,14,33,25.10
2009,07,18,14,34,25.20
2009,07,18,14,35,25.00
2009,07,18,14,36,25.00
2009,07,18,14,37,24.90
2009,07,18,14,38,25.00
2009,07,18,14,39,25.00
2009,07,18,14,40,25.10
2009,07,18,14,41,25.30
2009,07,18,14,42,25.50
2009,07,18,14,43,25.60
2009,07,18,14,44,25.60
2009,07,18,14,45,25.70
2009,07,18,14,46,25.70
2009,07,18,14,47,25.80
2009,07,18,14,48,25.80
2009,07,18,14,49,25.70
2009,07,18,14,50,25.60
2009,07,18,14,51,25.40
2009,07,18,14,52,25.40
2009,07,18,14,53,25.30
2009,07,18,14,54,25.30
2009,07,18,14,55,25.30
2009,07,18,14,56,25.20
2009,07,18,14,57,25.30
2009,07,18,14,58,25.40
2009,07,18,14,59,25.60
2009,07,18,15,00,25.80
2009,07,18,15,01,25.90
2009,07,18,15,02,25.90
2009,07,18,15,03,25.80
2009,07,18,15,04,25.70
2009,07,18,15,05,25.60
2009,07,18,15,06,25.50
2009,07,18,15,07,25.40
2009,07,18,15,08,25.30
2009,07,18,15,09,25.20
2009,07,18,15,10,25.10
2009,07,18,15,11,25.20
2009,07,18,15,12,25.20
2009,07,18,15,13,25.20
2009,07,18,15,14,25.40
2009,07,18,15,15,25.60
2009,07,18,15,16,25.70
2009,07,18,15,17,25.90
2009,07,18,15,18,26.10
2009,07,18,15,19,26.30
2009,07,18,15,20,26.30
2009,07,18,15,21,26.30
2009,07,18,15,22,26.30
2009,07,18,15,23,26.40
2009,07,18,15,24,26.50
2009,07,18,15,25,26.60
2009,07,18,15,26,26.60
2009,07,18,15,27,26.60
2009,07,18,15,28,26.60
2009,07,18,15,29,26.40
2009,07,18,15,30,26.00
2009,07,18,15,31,25.80
2009,07,18,15,32,25.60
2009,07,18,15,33,25.40
2009,07,18,15,34,25.40
2009,07,18,15,35,25.30
2009,07,18,15,36,25.40
2009,07,18,15,37,25.50
2009,07,18,15,38,25.60
2009,07,18,15,39,25.70
2009,07,18,15,40,25.80
2009,07,18,15,41,25.90
2009,07,18,15,42,25.90
2009,07,18,15,43,26.10
2009,07,18,15,44,26.20
2009,07,18,15,45,26.20
2009,07,18,15,46,26.20
2009,07,18,15,47,26.00
2009,07,18,15,48,25.90
2009,07,18,15,49,25.70
2009,07,18,15,50,25.50
2009,07,18,15,51,25.40
2009,07,18,15,52,25.40
2009,07,18,15,53,25.50
2009,07,18,15,54,25.50
2009,07,18,15,55,25.60
2009,07,18,15,56,25.60
2009,07,18,15,57,25.60
2009,07,18,15,58,25.50
2009,07,18,15,59,25.50
2009,07,18,16,00,25.30
2009,07,18,16,01,25.20
2009,07,18,16,02,25.20
2009,07,18,16,03,25.30
2009,07,18,16,04,25.40
2009,07,18,16,05,25.60
2009,07,18,16,06,25.80
2009,07,18,16,07,26.20
2009,07,18,16,08,26.30
2009,07,18,16,09,26.30
2009,07,18,16,10,26.20
2009,07,18,16,11,26.20
2009,07,18,16,12,26.20
2009,07,18,16,13,26.20
2009,07,18,16,14,26.20
2009,07,18,16,15,26.20
2009,07,18,16,16,26.20
2009,07,18,16,17,26.20
2009,07,18,16,18,26.10
2009,07,18,16,19,26.10
2009,07,18,16,20,26.10
2009,07,18,16,21,26.20
2009,07,18,16,22,26.30
2009,07,18,16,23,26.30
2009,07,18,16,24,26.40
2009,07,18,16,25,26.30
2009,07,18,16,26,26.20
2009,07,18,16,27,26.20
2009,07,18,16,28,26.20
2009,07,18,16,29,26.10
2009,07,18,16,30,26.20
2009,07,18,16,31,26.10
2009,07,18,16,32,26.10
2009,07,18,16,33,26.00
2009,07,18,16,34,26.00
2009,07,18,16,35,25.90
2009,07,18,16,36,26.00
2009,07,18,16,37,26.00
2009,07,18,16,38,26.00
2009,07,18,16,39,26.00
2009,07,18,16,40,26.10
2009,07,18,16,41,26.20
2009,07,18,16,42,26.20
2009,07,18,16,43,26.10
2009,07,18,16,44,26.00
2009,07,18,16,45,25.90
2009,07,18,16,46,25.90
2009,07,18,16,47,25.90
2009,07,18,16,48,25.80
2009,07,18,16,49,25.80
2009,07,18,16,50,25.80
2009,07,18,16,51,25.80
2009,07,18,16,52,25.80
2009,07,18,16,53,25.90
2009,07,18,16,54,25.90
2009,07,18,16,55,25.90
2009,07,18,16,56,25.80
2009,07,18,16,57,25.80
2009,07,18,16,58,25.80
2009,07,18,16,59,25.70
2009,07,18,17,00,25.60
2009,07,18,17,01,25.50
2009,07,18,17,02,25.40
2009,07,18,17,03,25.40
2009,07,18,17,04,25.40
2009,07,18,17,05,25.30
2009,07,18,17,06,25.30
2009,07,18,17,07,25.20
2009,07,18,17,08,25.20
2009,07,18,17,09,25.20
2009,07,18,17,10,25.20
2009,07,18,17,11,25.20
2009,07,18,17,12,25.20
2009,07,18,17,13,25.20
2009,07,18,17,14,25.20
2009,07,18,17,15,25.30
2009,07,18,17,16,25.30
2009,07,18,17,17,25.30
2009,07,18,17,18,25.30
2009,07,18,17,19,25.20